Terminal Aerodrome Forecast
Issued by NWS Upton, NY

Home | Current Version | Previous Version | Text Only | Print | Product List | Glossary On
Versions: 1 2 3 4 5 6 7 8 9 10 11 12 13 14 15 16 17 18 19 20 21 22 23 24 25
000
FTUS41 KOKX 271700
TAFBDR
TAF
KBDR 271723Z 2718/2818 33017G27KT 3SM -SN FEW012 BKN020
      TEMPO 2718/2722 1/2SM SN BKN012
     FM272200 33014G20KT 6SM -SN BKN020
     FM280300 33012KT P6SM -SHSN BKN020
     FM281400 33013G21KT P6SM BKN025=

USA.gov is the U.S. government's official web portal to all federal, state and local government web resources and services.